TimeCST,TemperatureF,Dew PointF,Humidity,Sea Level PressureIn,VisibilityMPH,Wind Direction,Wind SpeedMPH,Gust SpeedMPH,PrecipitationIn,Events,Conditions,WindDirDegrees,DateUTC
12:53 AM,28.0,25.0,88,30.39,9.0,Calm,Calm,-,N/A,,Clear,0,2011-12-17 06:53:00
1:53 AM,25.0,23.0,92,30.39,6.0,Calm,Calm,-,N/A,,Clear,0,2011-12-17 07:53:00
2:53 AM,24.1,21.9,91,30.41,5.0,Calm,Calm,-,N/A,,Clear,0,2011-12-17 08:53:00
3:53 AM,25.0,23.0,92,30.41,5.0,WSW,3.5,-,N/A,,Clear,250,2011-12-17 09:53:00
4:53 AM,26.1,24.1,92,30.41,5.0,SW,4.6,-,N/A,,Clear,220,2011-12-17 10:53:00
5:53 AM,23.0,19.9,88,30.41,5.0,Calm,Calm,-,N/A,,Clear,0,2011-12-17 11:53:00
6:53 AM,23.0,21.0,92,30.40,4.0,Calm,Calm,-,N/A,,Clear,0,2011-12-17 12:53:00
7:53 AM,26.1,24.1,92,30.40,4.0,Calm,Calm,-,N/A,,Clear,0,2011-12-17 13:53:00
8:53 AM,32.0,28.9,88,30.43,6.0,SW,4.6,-,N/A,,Clear,230,2011-12-17 14:53:00
9:53 AM,36.0,30.0,79,30.42,8.0,WSW,8.1,-,N/A,,Clear,240,2011-12-17 15:53:00
10:53 AM,39.0,30.9,73,30.39,10.0,SW,9.2,-,N/A,,Clear,220,2011-12-17 16:53:00
11:53 AM,42.1,30.0,62,30.35,10.0,SW,11.5,16.1,N/A,,Clear,230,2011-12-17 17:53:00
12:53 PM,44.1,28.0,53,30.33,10.0,WSW,10.4,-,N/A,,Clear,240,2011-12-17 18:53:00
1:53 PM,44.1,30.0,58,30.32,10.0,WSW,12.7,-,N/A,,Clear,240,2011-12-17 19:53:00
2:53 PM,45.0,30.9,58,30.32,10.0,West,13.8,-,N/A,,Clear,260,2011-12-17 20:53:00
3:53 PM,44.1,33.1,65,30.33,10.0,WSW,11.5,-,N/A,,Clear,250,2011-12-17 21:53:00
4:53 PM,41.0,33.1,73,30.32,10.0,WSW,8.1,-,N/A,,Clear,240,2011-12-17 22:53:00
5:53 PM,37.4,33.8,87,30.32,10.0,SW,4.6,-,N/A,,Clear,230,2011-12-17 23:53:00
6:53 PM,37.0,32.0,82,30.33,10.0,WSW,4.6,-,N/A,,Clear,240,2011-12-18 00:53:00
7:53 PM,36.0,30.9,82,30.34,10.0,WSW,6.9,-,N/A,,Clear,240,2011-12-18 01:53:00
8:53 PM,35.1,30.9,85,30.35,10.0,WSW,6.9,-,N/A,,Clear,240,2011-12-18 02:53:00
9:53 PM,35.1,30.9,85,30.35,10.0,WSW,6.9,-,N/A,,Clear,240,2011-12-18 03:53:00
10:53 PM,35.1,32.0,89,30.35,10.0,WSW,6.9,-,N/A,,Clear,240,2011-12-18 04:53:00
11:53 PM,35.1,30.9,85,30.35,10.0,SW,6.9,-,N/A,,Clear,230,2011-12-18 05:53:00